TimeMST,TemperatureF,Dew PointF,Humidity,Sea Level PressureIn,VisibilityMPH,Wind Direction,Wind SpeedMPH,Gust SpeedMPH,PrecipitationIn,Events,Conditions,WindDirDegrees,DateUTC
12:24 AM,21.2,19.4,93,30.26,10.0,Calm,Calm,-,N/A,,Scattered Clouds,0,2012-11-15 07:24:00
12:33 AM,23.0,19.4,86,30.27,10.0,Calm,Calm,-,N/A,,Mostly Cloudy,0,2012-11-15 07:33:00
12:44 AM,24.8,21.2,86,30.26,1.8,Calm,Calm,-,N/A,,Overcast,0,2012-11-15 07:44:00
12:51 AM,24.1,23.0,96,30.36,0.8,Calm,Calm,-,N/A,,Mist,0,2012-11-15 07:51:00
1:51 AM,27.0,26.1,96,30.34,0.2,Calm,Calm,-,N/A,Fog,Light Freezing Fog,0,2012-11-15 08:51:00
2:51 AM,26.1,25.0,96,30.35,1.0,Calm,Calm,-,N/A,,Mist,0,2012-11-15 09:51:00
3:07 AM,24.8,24.8,100,30.26,1.2,Calm,Calm,-,N/A,,Overcast,0,2012-11-15 10:07:00
3:21 AM,24.8,24.8,100,30.26,0.8,Calm,Calm,-,N/A,,Overcast,0,2012-11-15 10:21:00
3:51 AM,24.1,23.0,96,30.33,0.5,Calm,Calm,-,N/A,Fog,Light Freezing Fog,0,2012-11-15 10:51:00
4:03 AM,24.8,23.0,93,30.25,1.2,NE,3.5,-,N/A,,Overcast,40,2012-11-15 11:03:00
4:07 AM,24.8,23.0,93,30.25,3.0,NE,3.5,-,N/A,,Overcast,50,2012-11-15 11:07:00
4:18 AM,24.8,23.0,93,30.24,1.8,Calm,Calm,-,N/A,,Overcast,0,2012-11-15 11:18:00
4:27 AM,24.8,24.8,100,30.24,0.8,ENE,3.5,-,N/A,,Mist,60,2012-11-15 11:27:00
4:51 AM,26.1,25.0,96,30.33,0.8,Calm,Calm,-,N/A,,Mist,0,2012-11-15 11:51:00
5:25 AM,26.6,24.8,93,30.25,1.0,Calm,Calm,-,N/A,,Mist,0,2012-11-15 12:25:00
5:31 AM,26.6,24.8,93,30.25,1.5,ESE,4.6,-,N/A,,Overcast,120,2012-11-15 12:31:00
5:51 AM,27.0,25.0,92,30.34,1.5,Calm,Calm,-,N/A,,Overcast,0,2012-11-15 12:51:00
6:13 AM,26.6,24.8,93,30.24,2.0,Calm,Calm,-,N/A,,Overcast,0,2012-11-15 13:13:00
6:24 AM,26.6,24.8,93,30.24,1.5,ENE,3.5,-,N/A,,Overcast,70,2012-11-15 13:24:00
6:38 AM,26.6,24.8,93,30.24,3.0,NE,3.5,-,N/A,,Overcast,40,2012-11-15 13:38:00
6:51 AM,27.0,24.1,89,30.34,6.0,NE,4.6,-,N/A,,Overcast,50,2012-11-15 13:51:00
7:51 AM,26.1,24.1,92,30.35,2.5,NNE,4.6,-,N/A,,Overcast,30,2012-11-15 14:51:00
8:00 AM,26.6,24.8,93,30.24,1.5,NNE,4.6,-,N/A,,Overcast,30,2012-11-15 15:00:00
8:05 AM,26.6,24.8,93,30.24,0.8,NNE,3.5,-,N/A,,Mist,30,2012-11-15 15:05:00
8:43 AM,26.6,24.8,93,30.25,1.2,North,4.6,-,N/A,,Overcast,360,2012-11-15 15:43:00
8:51 AM,27.0,25.0,92,30.36,1.8,Calm,Calm,-,N/A,,Overcast,0,2012-11-15 15:51:00
9:44 AM,28.4,24.8,86,30.24,2.5,NE,3.5,-,N/A,,Overcast,50,2012-11-15 16:44:00
9:51 AM,28.0,26.1,92,30.36,2.0,NNE,3.5,-,N/A,,Overcast,20,2012-11-15 16:51:00
10:01 AM,28.4,26.6,93,30.24,5.0,Calm,Calm,-,N/A,,Overcast,0,2012-11-15 17:01:00
10:14 AM,28.4,24.8,86,30.23,1.8,Calm,Calm,-,N/A,,Overcast,0,2012-11-15 17:14:00
10:20 AM,28.4,26.6,93,30.23,0.8,Calm,Calm,-,N/A,,Overcast,0,2012-11-15 17:20:00
10:37 AM,28.4,26.6,93,30.23,1.2,Calm,Calm,-,N/A,,Overcast,0,2012-11-15 17:37:00
10:47 AM,28.4,26.6,93,30.23,2.0,Calm,Calm,-,N/A,,Overcast,0,2012-11-15 17:47:00
10:51 AM,28.9,26.1,89,30.33,2.0,Calm,Calm,-,N/A,,Overcast,0,2012-11-15 17:51:00
11:11 AM,28.4,26.6,93,30.23,4.0,Calm,Calm,-,N/A,,Overcast,0,2012-11-15 18:11:00
11:51 AM,28.9,27.0,92,30.32,10.0,Calm,Calm,-,N/A,,Overcast,0,2012-11-15 18:51:00
12:16 PM,28.4,26.6,93,30.19,10.0,Calm,Calm,-,N/A,,Overcast,0,2012-11-15 19:16:00
12:42 PM,28.4,28.4,100,30.18,6.0,Calm,Calm,-,N/A,,Overcast,0,2012-11-15 19:42:00
12:51 PM,28.9,28.0,96,30.28,6.0,Calm,Calm,-,N/A,,Overcast,0,2012-11-15 19:51:00
1:07 PM,28.4,28.4,100,30.17,7.0,Calm,Calm,-,N/A,,Overcast,0,2012-11-15 20:07:00
1:51 PM,30.0,28.0,92,30.25,10.0,Calm,Calm,-,N/A,,Overcast,0,2012-11-15 20:51:00
2:42 PM,32.0,28.4,87,30.14,10.0,Calm,Calm,-,N/A,,Overcast,0,2012-11-15 21:42:00
2:51 PM,32.0,28.9,88,30.23,10.0,Calm,Calm,-,N/A,,Mostly Cloudy,0,2012-11-15 21:51:00
3:51 PM,34.0,30.0,85,30.20,10.0,Calm,Calm,-,N/A,,Clear,0,2012-11-15 22:51:00
4:51 PM,34.0,28.9,82,30.19,10.0,Calm,Calm,-,N/A,,Clear,0,2012-11-15 23:51:00
5:51 PM,32.0,28.9,88,30.16,10.0,Calm,Calm,-,N/A,,Clear,0,2012-11-16 00:51:00
6:51 PM,28.9,27.0,92,30.16,8.0,Calm,Calm,-,N/A,,Clear,0,2012-11-16 01:51:00
7:51 PM,28.0,26.1,92,30.17,10.0,NE,3.5,-,N/A,,Clear,40,2012-11-16 02:51:00
8:51 PM,28.0,26.1,92,30.16,10.0,ENE,3.5,-,N/A,,Clear,60,2012-11-16 03:51:00
9:51 PM,27.0,25.0,92,30.16,10.0,Calm,Calm,-,N/A,,Clear,0,2012-11-16 04:51:00
10:51 PM,25.0,23.0,92,30.16,7.0,Calm,Calm,-,N/A,,Overcast,0,2012-11-16 05:51:00
11:09 PM,26.6,24.8,93,30.06,6.0,Calm,Calm,-,N/A,,Mostly Cloudy,0,2012-11-16 06:09:00
11:18 PM,26.6,24.8,93,30.05,6.0,Calm,Calm,-,N/A,,Mostly Cloudy,0,2012-11-16 06:18:00
11:51 PM,27.0,25.0,92,30.15,6.0,Calm,Calm,-,N/A,,Overcast,0,2012-11-16 06:51:00